Wind_Speed
10 11 11 11 11 11 12 12 11 10 10 10 11 10 11 11 12 12 12 11 12 12 12 13 13 13 13 13 13 13 13 13 13 13 14 13 14 14 14 15 16 16 15
10 10 11 11 11 11 11 11 11 11 11 11 11 11 12 12 12 12 12 12 12 12 13 13 13 13 13 13 14 13 13 13 13 13 14 14 15 15 15 16 16 16 16
10 10 10 11 11 11 11 11 11 11 12 12 12 12 12 12 12 13 13 13 13 13 14 14 14 14 14 14 14 14 14 14 14 14 15 15 16 16 16 17 17 16 16
10 11 11 11 12 11 11 11 12 12 13 12 13 13 13 12 12 13 13 13 13 13 14 14 14 14 14 14 14 14 14 14 15 15 15 15 16 16 16 17 16 15 15
11 11 11 12 11 11 11 12 13 13 13 13 13 14 13 13 13 14 14 13 13 13 14 14 14 14 14 14 14 14 15 14 14 14 15 16 16 16 16 15 14 14 14
12 12 12 12 11 11 12 12 13 14 14 14 15 15 14 14 14 14 13 12 13 13 13 14 14 15 15 15 15 15 15 15 14 15 15 15 15 15 14 14 14 14 14
13 12 12 12 12 12 13 13 14 15 15 15 15 15 15 14 14 14 13 13 13 13 14 14 14 14 15 15 15 16 15 15 15 15 15 15 14 14 13 13 14 14 15
14 14 13 13 14 14 14 14 14 15 15 15 15 14 14 13 13 13 13 14 14 14 14 14 14 15 15 15 15 14 15 15 15 15 15 14 14 13 13 14 14 14 15
15 15 15 15 15 15 15 15 15 15 15 15 15 14 14 13 13 13 13 14 14 14 14 14 14 15 15 14 15 15 15 15 15 15 14 14 14 14 14 14 15 16 16
16 16 16 16 16 16 16 16 17 16 15 15 15 15 14 14 14 14 14 14 14 14 14 14 15 15 15 15 15 15 15 16 16 15 14 15 15 15 15 15 16 17 17
17 17 17 16 16 16 16 17 17 17 16 16 15 15 15 14 14 14 14 14 14 14 14 15 15 15 15 16 16 16 16 16 16 16 16 17 17 16 16 17 17 17 17
18 18 18 18 18 17 17 17 17 17 17 16 16 15 15 15 15 15 15 14 14 14 14 15 15 15 15 16 16 16 17 17 17 17 17 18 18 17 17 17 18 18 17
19 18 18 18 18 18 18 18 17 17 18 17 16 16 16 16 16 15 15 15 15 15 15 15 15 15 15 15 16 16 17 17 17 17 17 18 18 18 17 17 18 18 19
20 19 20 19 19 18 18 18 18 18 18 18 17 17 17 17 16 16 15 15 15 15 16 16 16 16 16 16 16 16 17 17 18 17 18 18 18 18 18 18 18 19 19
21 20 20 20 20 19 19 18 18 18 18 18 19 18 17 18 17 17 16 16 17 17 17 17 17 17 17 17 18 18 17 18 18 18 19 19 19 18 18 17 17 17 17
22 22 21 21 20 19 19 19 19 19 19 19 19 19 18 18 18 17 17 17 18 18 18 18 18 19 19 18 18 18 18 18 18 19 19 19 18 17 16 16 16 17 17
24 24 22 21 21 20 20 19 19 19 19 19 20 20 20 19 18 18 18 18 18 19 19 19 19 20 20 20 19 19 19 18 18 18 18 18 18 18 17 16 17 17 18
24 23 23 22 22 21 21 21 21 21 21 21 21 21 21 20 20 20 20 20 20 20 20 20 20 20 20 20 19 19 18 18 18 18 18 19 19 18 18 18 18 18 19
24 24 24 23 23 23 22 22 23 23 22 22 22 22 23 22 22 22 22 22 21 20 20 20 20 20 20 19 19 19 19 19 19 19 19 19 19 19 19 19 19 20 20
24 24 24 24 24 24 24 24 23 23 23 23 23 23 24 24 23 22 22 22 22 21 20 20 20 20 20 20 20 20 20 20 20 21 21 20 20 19 20 20 20 21 21
25 25 24 24 24 24 24 24 25 24 23 23 24 24 24 24 24 23 23 22 22 21 21 21 21 21 21 21 21 21 21 21 20 20 20 20 21 21 21 21 21 21 21
25 25 25 25 24 24 24 25 25 25 25 25 25 25 25 25 24 24 23 23 23 23 22 23 22 22 22 21 22 22 22 22 21 21 21 21 22 22 22 22 22 22 22
24 24 24 24 24 24 24 24 24 25 26 26 25 25 24 25 25 24 24 24 24 24 24 24 24 23 23 23 23 22 22 22 22 21 21 22 21 21 21 21 22 23 23
24 25 25 25 24 24 24 24 25 25 25 25 25 25 24 24 24 24 24 24 24 24 24 24 24 24 24 24 23 22 22 22 22 23 22 22 22 21 21 22 23 23 23
24 24 25 25 25 25 26 26 25 25 25 25 25 24 24 24 24 24 24 24 23 24 24 25 25 25 25 24 25 24 23 23 23 23 23 23 22 22 23 24 24 23 23
23 23 24 25 25 25 25 25 26 26 26 25 25 24 24 24 24 24 24 24 23 23 23 24 25 24 24 24 24 25 25 24 24 24 24 24 24 24 24 24 24 24 24
Wind_Direction
253 255 256 253 255 260 264 266 269 273 276 277 275 273 276 280 281 280 275 273 269 268 268 267 268 267 269 272 273 275 275 274 274 274 269 268 276 277 277 278 279 281 284
253 253 255 255 257 260 262 263 269 273 276 276 276 274 278 280 278 276 275 274 272 272 271 271 268 266 269 272 273 274 274 275 275 274 271 272 277 279 280 282 281 283 284
256 256 256 254 254 258 262 267 269 272 277 277 277 276 276 276 276 276 276 275 274 274 272 271 269 267 269 272 273 273 272 275 276 274 275 274 277 279 277 278 279 281 282
255 253 253 254 258 260 263 267 271 275 277 277 279 278 276 272 273 276 277 274 273 273 272 270 269 268 268 272 274 273 273 276 277 276 277 276 276 277 277 277 277 280 283
255 254 254 256 258 260 264 267 270 273 275 276 280 278 274 271 272 273 273 273 273 273 272 271 270 269 269 271 273 275 275 277 276 275 280 279 275 275 277 277 277 279 281
254 254 254 256 260 264 266 267 270 273 276 276 281 278 275 273 273 270 269 269 271 273 272 272 271 269 270 271 272 272 275 276 276 276 280 279 274 272 272 275 277 278 280
252 252 253 257 264 269 270 271 272 274 276 275 278 276 275 274 272 268 265 268 272 273 274 272 273 271 270 271 271 270 272 273 275 277 277 276 274 272 273 276 279 280 282
255 253 255 259 266 270 273 273 272 274 275 276 276 273 274 275 272 268 265 268 272 273 272 271 274 274 272 271 271 271 272 272 274 278 275 274 273 272 273 276 279 283 283
258 256 257 260 264 270 272 272 271 272 272 273 272 269 271 273 273 272 270 272 272 271 269 270 273 274 272 272 273 274 274 273 274 277 275 274 273 272 274 278 280 284 285
261 259 261 261 263 265 267 268 268 268 267 269 270 268 268 270 274 276 275 275 272 269 268 270 272 272 271 272 273 273 273 271 272 273 274 273 275 275 276 279 282 283 283
262 262 263 263 262 264 266 269 267 264 265 267 266 267 268 270 274 276 275 274 271 267 266 269 270 271 272 273 273 274 274 272 271 271 272 272 273 275 279 281 283 283 284
262 263 265 265 264 264 265 266 266 263 263 264 264 267 268 268 271 273 273 271 270 268 267 267 269 272 275 274 273 272 273 270 270 271 272 274 275 277 279 280 282 282 285
261 262 263 264 265 266 267 267 265 264 263 259 262 264 268 268 270 272 272 271 269 266 267 271 274 274 276 275 274 273 272 271 270 270 270 273 276 279 279 279 282 282 283
258 260 263 265 266 268 270 270 267 262 258 258 261 264 267 270 270 270 269 267 266 265 268 271 274 275 276 277 275 273 271 271 272 271 270 272 275 276 277 278 279 280 280
258 259 262 264 266 265 264 265 264 262 260 261 262 264 268 268 269 268 267 266 265 268 270 271 272 274 276 275 274 273 272 272 271 271 271 272 274 275 277 280 282 283 284
259 260 261 261 260 261 263 263 262 260 260 262 264 266 267 269 270 268 267 268 268 269 270 270 270 272 273 275 275 273 273 273 272 272 273 274 276 278 280 280 281 283 286
258 256 256 256 257 259 261 262 261 260 260 263 265 265 267 270 272 272 270 269 271 272 272 272 271 271 272 275 275 274 274 274 272 272 272 273 276 277 279 281 282 283 284
255 253 253 254 256 257 258 260 261 262 262 261 263 265 266 267 271 271 269 270 273 273 271 271 273 273 272 273 272 273 273 273 272 271 270 272 274 276 278 281 283 284 284
254 255 255 255 256 257 257 260 261 262 262 262 263 264 265 267 269 270 271 270 272 272 271 273 274 274 273 272 269 270 270 270 271 270 271 273 274 275 276 280 284 285 286
255 256 256 255 256 256 257 259 260 261 262 262 264 265 267 268 270 271 272 272 270 270 271 271 273 273 272 271 270 270 269 270 271 270 271 273 275 275 276 280 283 285 288
254 255 255 256 257 257 258 259 259 260 261 263 264 266 268 269 269 271 271 271 271 269 269 269 272 274 272 271 271 270 269 269 270 271 272 273 274 275 278 281 282 283 286
253 253 254 255 255 256 257 259 261 261 262 263 266 267 267 267 268 270 271 270 270 268 267 269 271 273 272 271 271 270 268 267 268 270 272 274 275 275 276 277 279 280 283
253 252 252 253 254 256 258 260 262 262 263 264 266 266 266 267 268 269 269 268 268 268 267 268 269 270 271 270 269 269 269 268 268 269 272 275 275 275 275 277 279 281 283
254 251 251 251 253 256 259 261 262 263 264 265 265 266 266 267 268 267 267 268 268 267 267 267 267 269 270 269 268 268 267 268 269 270 271 273 275 275 275 277 280 281 283
257 255 255 255 256 258 260 261 262 262 263 265 266 265 266 267 268 268 268 269 268 266 266 265 266 266 267 268 267 267 268 269 269 270 271 272 272 272 274 277 279 280 282
256 256 258 259 259 259 260 260 260 261 261 263 264 264 264 266 267 269 269 269 268 267 267 267 266 265 266 267 267 267 267 268 268 270 272 273 272 273 275 277 279 281 281
Height
5810 5811 5811 5812 5812 5812 5812 5812 5812 5812 5811 5811 5811 5810 5810 5809 5809 5808 5808 5807 5807 5806 5806 5806 5806 5805 5805 5805 5805 5804 5804 5804 5804 5803 5802 5801 5801 5800 5800 5799 5798 5797 5796
5806 5807 5807 5808 5808 5809 5808 5808 5808 5808 5808 5807 5807 5807 5806 5805 5805 5805 5804 5804 5803 5802 5802 5802 5801 5801 5801 5801 5801 5800 5800 5799 5799 5798 5798 5797 5796 5796 5795 5794 5793 5792 5791
5803 5803 5804 5804 5805 5805 5805 5804 5805 5804 5804 5804 5803 5803 5802 5801 5801 5800 5800 5800 5799 5798 5798 5798 5797 5797 5797 5797 5797 5796 5795 5795 5795 5794 5793 5793 5792 5791 5790 5790 5789 5788 5787
5799 5799 5800 5800 5801 5801 5801 5801 5801 5800 5800 5800 5799 5798 5797 5797 5796 5796 5796 5795 5795 5794 5793 5793 5793 5793 5793 5793 5792 5792 5791 5791 5790 5789 5788 5788 5787 5786 5785 5785 5784 5783 5782
5795 5795 5796 5796 5796 5797 5797 5797 5797 5796 5796 5795 5795 5794 5793 5792 5792 5792 5791 5790 5790 5789 5789 5789 5788 5788 5788 5788 5788 5787 5787 5786 5785 5785 5784 5783 5782 5781 5780 5779 5779 5778 5778
5791 5791 5792 5792 5792 5793 5793 5793 5792 5792 5791 5791 5790 5789 5788 5788 5787 5787 5786 5786 5785 5785 5785 5784 5784 5784 5784 5783 5783 5783 5782 5781 5781 5780 5779 5777 5776 5776 5775 5775 5775 5774 5774
5787 5787 5788 5788 5789 5789 5788 5788 5788 5788 5787 5786 5785 5785 5784 5783 5782 5782 5781 5781 5781 5780 5780 5780 5780 5779 5779 5779 5779 5778 5778 5776 5776 5775 5774 5773 5772 5771 5771 5771 5770 5770 5769
5782 5783 5783 5784 5784 5784 5784 5784 5784 5783 5782 5782 5781 5780 5779 5779 5777 5777 5776 5776 5776 5776 5776 5775 5775 5775 5774 5774 5774 5773 5773 5772 5771 5770 5770 5769 5768 5767 5767 5767 5766 5765 5764
5778 5778 5779 5779 5780 5780 5779 5779 5779 5778 5778 5777 5777 5776 5775 5775 5773 5772 5772 5771 5771 5771 5771 5771 5771 5770 5770 5769 5769 5769 5768 5768 5767 5766 5765 5765 5764 5763 5763 5762 5761 5761 5760
5772 5773 5774 5774 5774 5775 5774 5774 5774 5773 5773 5772 5772 5771 5771 5770 5769 5768 5767 5766 5766 5766 5766 5766 5766 5766 5765 5765 5765 5764 5764 5763 5763 5762 5761 5760 5760 5759 5758 5758 5757 5756 5755
5766 5767 5768 5769 5769 5769 5769 5769 5768 5768 5768 5767 5767 5767 5766 5765 5765 5764 5762 5761 5761 5761 5761 5762 5761 5761 5760 5760 5760 5759 5759 5759 5758 5757 5757 5756 5755 5755 5754 5753 5752 5751 5750
5760 5762 5763 5763 5763 5763 5763 5763 5763 5762 5762 5762 5762 5762 5761 5761 5760 5759 5758 5757 5757 5757 5757 5757 5757 5756 5756 5755 5755 5754 5754 5753 5753 5752 5752 5751 5751 5750 5749 5748 5747 5746 5745
5754 5756 5757 5757 5758 5757 5757 5757 5757 5756 5756 5756 5757 5757 5756 5756 5756 5755 5754 5753 5753 5752 5753 5753 5752 5751 5751 5750 5750 5749 5749 5748 5748 5747 5747 5746 5745 5744 5744 5743 5742 5741 5740
5748 5750 5751 5751 5751 5751 5751 5751 5751 5751 5751 5751 5751 5751 5751 5751 5750 5750 5749 5749 5748 5748 5748 5748 5747 5746 5746 5746 5745 5744 5743 5743 5742 5742 5741 5741 5740 5739 5738 5737 5736 5735 5734
5742 5743 5744 5745 5745 5746 5746 5746 5745 5745 5745 5745 5745 5745 5745 5745 5745 5744 5744 5744 5743 5743 5743 5743 5742 5741 5741 5741 5740 5739 5738 5738 5737 5736 5736 5735 5734 5734 5733 5731 5730 5729 5728
5735 5736 5737 5738 5739 5739 5739 5740 5739 5740 5740 5739 5739 5739 5739 5739 5738 5738 5738 5738 5738 5737 5737 5737 5737 5736 5736 5735 5734 5733 5732 5732 5731 5731 5730 5730 5729 5728 5727 5726 5725 5724 5723
5728 5729 5730 5731 5732 5732 5733 5733 5733 5734 5734 5734 5734 5734 5733 5733 5733 5732 5732 5732 5732 5731 5731 5730 5730 5730 5730 5729 5728 5727 5727 5726 5725 5725 5725 5724 5724 5723 5722 5721 5720 5719 5717
5721 5722 5723 5724 5724 5725 5726 5726 5727 5727 5727 5727 5727 5727 5727 5727 5727 5726 5726 5726 5725 5725 5724 5724 5723 5723 5722 5722 5721 5721 5721 5720 5720 5720 5719 5719 5718 5718 5717 5716 5715 5713 5712
5713 5715 5716 5716 5717 5718 5719 5719 5720 5720 5720 5720 5721 5721 5720 5720 5720 5719 5719 5719 5718 5718 5717 5717 5717 5716 5716 5715 5715 5715 5715 5714 5714 5714 5714 5713 5713 5712 5711 5710 5709 5708 5706
5706 5707 5708 5709 5710 5710 5711 5712 5713 5713 5713 5713 5713 5713 5713 5713 5713 5712 5712 5711 5711 5710 5710 5710 5710 5709 5709 5709 5708 5708 5708 5708 5708 5708 5707 5707 5707 5706 5705 5704 5703 5702 5700
5698 5699 5700 5701 5702 5703 5704 5705 5705 5705 5706 5706 5706 5705 5705 5705 5705 5705 5704 5704 5703 5703 5703 5703 5703 5703 5702 5702 5702 5701 5701 5701 5701 5701 5701 5700 5700 5699 5698 5697 5696 5695 5694
5689 5691 5692 5694 5695 5695 5696 5697 5697 5698 5698 5698 5697 5697 5697 5697 5697 5697 5696 5696 5696 5696 5696 5696 5696 5695 5695 5694 5694 5694 5694 5694 5694 5694 5694 5693 5693 5692 5691 5690 5689 5688 5687
5681 5683 5684 5685 5686 5688 5688 5689 5689 5689 5689 5689 5689 5689 5689 5689 5689 5689 5688 5688 5688 5688 5688 5687 5687 5687 5687 5687 5686 5687 5687 5687 5687 5687 5686 5686 5685 5685 5684 5683 5682 5681 5680
5673 5675 5676 5677 5678 5679 5680 5680 5681 5681 5681 5681 5680 5680 5680 5680 5680 5680 5680 5680 5679 5679 5679 5679 5679 5679 5679 5678 5678 5678 5679 5679 5679 5679 5678 5678 5678 5677 5677 5676 5675 5674 5673
5665 5666 5667 5668 5669 5670 5671 5671 5672 5672 5673 5672 5672 5672 5672 5672 5672 5672 5672 5671 5671 5671 5671 5671 5671 5671 5670 5670 5670 5670 5670 5670 5671 5670 5670 5670 5670 5670 5669 5669 5667 5666 5666
5657 5658 5659 5660 5661 5661 5662 5663 5663 5663 5664 5664 5664 5664 5664 5664 5663 5663 5663 5663 5662 5662 5662 5662 5662 5662 5662 5662 5661 5662 5662 5662 5662 5662 5662 5662 5662 5661 5661 5661 5660 5659 5658